Year,Month,Day,Hour,Minute,Value (Times are PST for temperature in C)
2018,06,06,00,00,12.90
2018,06,06,00,01,12.80
2018,06,06,00,02,12.80
2018,06,06,00,03,12.80
2018,06,06,00,04,12.80
2018,06,06,00,05,12.80
2018,06,06,00,06,12.80
2018,06,06,00,07,12.80
2018,06,06,00,08,12.80
2018,06,06,00,09,12.80
2018,06,06,00,10,12.80
2018,06,06,00,11,12.80
2018,06,06,00,12,12.80
2018,06,06,00,13,12.80
2018,06,06,00,14,12.80
2018,06,06,00,15,12.80
2018,06,06,00,16,12.80
2018,06,06,00,17,12.80
2018,06,06,00,18,12.70
2018,06,06,00,19,12.80
2018,06,06,00,20,12.80
2018,06,06,00,21,12.70
2018,06,06,00,22,12.70
2018,06,06,00,23,12.70
2018,06,06,00,24,12.70
2018,06,06,00,25,12.70
2018,06,06,00,26,12.70
2018,06,06,00,27,12.70
2018,06,06,00,28,12.70
2018,06,06,00,29,12.70
2018,06,06,00,30,12.70
2018,06,06,00,31,12.70
2018,06,06,00,32,12.70
2018,06,06,00,33,12.70
2018,06,06,00,34,12.70
2018,06,06,00,35,12.70
2018,06,06,00,36,12.70
2018,06,06,00,37,12.70
2018,06,06,00,38,12.70
2018,06,06,00,39,12.70
2018,06,06,00,40,12.70
2018,06,06,00,41,12.70
2018,06,06,00,42,12.70
2018,06,06,00,43,12.70
2018,06,06,00,44,12.70
2018,06,06,00,45,12.70
2018,06,06,00,46,12.70
2018,06,06,00,47,12.70
2018,06,06,00,48,12.70
2018,06,06,00,49,12.70
2018,06,06,00,50,12.70
2018,06,06,00,51,12.70
2018,06,06,00,52,12.70
2018,06,06,00,53,12.70
2018,06,06,00,54,12.70
2018,06,06,00,55,12.70
2018,06,06,00,56,12.70
2018,06,06,00,57,12.70
2018,06,06,00,58,12.70
2018,06,06,00,59,12.70
2018,06,06,01,00,12.70
2018,06,06,01,01,12.70
2018,06,06,01,02,12.70
2018,06,06,01,03,12.70
2018,06,06,01,04,12.70
2018,06,06,01,05,12.70
2018,06,06,01,06,12.70
2018,06,06,01,07,12.70
2018,06,06,01,08,12.70
2018,06,06,01,09,12.70
2018,06,06,01,10,12.70
2018,06,06,01,11,12.70
2018,06,06,01,12,12.70
2018,06,06,01,13,12.70
2018,06,06,01,14,12.70
2018,06,06,01,15,12.60
2018,06,06,01,16,12.60
2018,06,06,01,17,12.60
2018,06,06,01,18,12.60
2018,06,06,01,19,12.60
2018,06,06,01,20,12.60
2018,06,06,01,21,12.60
2018,06,06,01,22,12.60
2018,06,06,01,23,12.70
2018,06,06,01,24,12.70
2018,06,06,01,25,12.70
2018,06,06,01,26,12.70
2018,06,06,01,27,12.70
2018,06,06,01,28,12.70
2018,06,06,01,29,12.70
2018,06,06,01,30,12.70
2018,06,06,01,31,12.70
2018,06,06,01,32,12.70
2018,06,06,01,33,12.70
2018,06,06,01,34,12.70
2018,06,06,01,35,12.70
2018,06,06,01,36,12.70
2018,06,06,01,37,12.70
2018,06,06,01,38,12.70
2018,06,06,01,39,12.80
2018,06,06,01,40,12.80
2018,06,06,01,41,12.80
2018,06,06,01,42,12.80
2018,06,06,01,43,12.80
2018,06,06,01,44,12.80
2018,06,06,01,45,12.80
2018,06,06,01,46,12.80
2018,06,06,01,47,12.80
2018,06,06,01,48,12.80
2018,06,06,01,49,12.80
2018,06,06,01,50,12.70
2018,06,06,01,51,12.70
2018,06,06,01,52,12.70
2018,06,06,01,53,12.70
2018,06,06,01,54,12.70
2018,06,06,01,55,12.60
2018,06,06,01,56,12.60
2018,06,06,01,57,12.60
2018,06,06,01,58,12.60
2018,06,06,01,59,12.60
2018,06,06,02,00,12.60
2018,06,06,02,01,12.60
2018,06,06,02,02,12.60
2018,06,06,02,03,12.60
2018,06,06,02,04,12.60
2018,06,06,02,05,12.60
2018,06,06,02,06,12.60
2018,06,06,02,07,12.60
2018,06,06,02,08,12.60
2018,06,06,02,09,12.60
2018,06,06,02,10,12.60
2018,06,06,02,11,12.60
2018,06,06,02,12,12.60
2018,06,06,02,13,12.60
2018,06,06,02,14,12.70
2018,06,06,02,15,12.70
2018,06,06,02,16,12.70
2018,06,06,02,17,12.70
2018,06,06,02,18,12.70
2018,06,06,02,19,12.70
2018,06,06,02,20,12.70
2018,06,06,02,21,12.70
2018,06,06,02,22,12.70
2018,06,06,02,23,12.70
2018,06,06,02,24,12.70
2018,06,06,02,25,12.70
2018,06,06,02,26,12.70
2018,06,06,02,27,12.70
2018,06,06,02,28,12.70
2018,06,06,02,29,12.70
2018,06,06,02,30,12.70
2018,06,06,02,31,12.70
2018,06,06,02,32,12.70
2018,06,06,02,33,12.70
2018,06,06,02,34,12.70
2018,06,06,02,35,12.70
2018,06,06,02,36,12.70
2018,06,06,02,37,12.70
2018,06,06,02,38,12.70
2018,06,06,02,39,12.70
2018,06,06,02,40,12.60
2018,06,06,02,41,12.60
2018,06,06,02,42,12.60
2018,06,06,02,43,12.60
2018,06,06,02,44,12.60
2018,06,06,02,45,12.60
2018,06,06,02,46,12.60
2018,06,06,02,47,12.60
2018,06,06,02,48,12.60
2018,06,06,02,49,12.60
2018,06,06,02,50,12.60
2018,06,06,02,51,12.60
2018,06,06,02,52,12.60
2018,06,06,02,53,12.60
2018,06,06,02,54,12.60
2018,06,06,02,55,12.60
2018,06,06,02,56,12.60
2018,06,06,02,57,12.60
2018,06,06,02,58,12.60
2018,06,06,02,59,12.60
2018,06,06,03,00,12.60
2018,06,06,03,01,12.60
2018,06,06,03,02,12.60
2018,06,06,03,03,12.60
2018,06,06,03,04,12.60
2018,06,06,03,05,12.60
2018,06,06,03,06,12.60
2018,06,06,03,07,12.60
2018,06,06,03,08,12.60
2018,06,06,03,09,12.60
2018,06,06,03,10,12.60
2018,06,06,03,11,12.50
2018,06,06,03,12,12.50
2018,06,06,03,13,12.50
2018,06,06,03,14,12.50
2018,06,06,03,15,12.50
2018,06,06,03,16,12.50
2018,06,06,03,17,12.50
2018,06,06,03,18,12.40
2018,06,06,03,19,12.40
2018,06,06,03,20,12.40
2018,06,06,03,21,12.40
2018,06,06,03,22,12.40
2018,06,06,03,23,12.40
2018,06,06,03,24,12.40
2018,06,06,03,25,12.40
2018,06,06,03,26,12.40
2018,06,06,03,27,12.40
2018,06,06,03,28,12.40
2018,06,06,03,29,12.40
2018,06,06,03,30,12.40
2018,06,06,03,31,12.40
2018,06,06,03,32,12.40
2018,06,06,03,33,12.40
2018,06,06,03,34,12.40
2018,06,06,03,35,12.40
2018,06,06,03,36,12.40
2018,06,06,03,37,12.40
2018,06,06,03,38,12.40
2018,06,06,03,39,12.40
2018,06,06,03,40,12.40
2018,06,06,03,41,12.40
2018,06,06,03,42,12.30
2018,06,06,03,43,12.30
2018,06,06,03,44,12.30
2018,06,06,03,45,12.30
2018,06,06,03,46,12.20
2018,06,06,03,47,12.20
2018,06,06,03,48,12.20
2018,06,06,03,49,12.20
2018,06,06,03,50,12.20
2018,06,06,03,51,12.20
2018,06,06,03,52,12.10
2018,06,06,03,53,12.10
2018,06,06,03,54,12.10
2018,06,06,03,55,12.10
2018,06,06,03,56,12.10
2018,06,06,03,57,12.10
2018,06,06,03,58,12.10
2018,06,06,03,59,12.10
2018,06,06,04,00,12.10
2018,06,06,04,01,12.10
2018,06,06,04,02,12.10
2018,06,06,04,03,12.00
2018,06,06,04,04,12.00
2018,06,06,04,05,12.00
2018,06,06,04,06,12.00
2018,06,06,04,07,11.90
2018,06,06,04,08,11.90
2018,06,06,04,09,11.90
2018,06,06,04,10,11.90
2018,06,06,04,11,11.90
2018,06,06,04,12,11.90
2018,06,06,04,13,11.90
2018,06,06,04,14,11.90
2018,06,06,04,15,11.90
2018,06,06,04,16,11.90
2018,06,06,04,17,11.90
2018,06,06,04,18,11.90
2018,06,06,04,19,11.90
2018,06,06,04,20,11.90
2018,06,06,04,21,11.80
2018,06,06,04,22,11.80
2018,06,06,04,23,11.80
2018,06,06,04,24,11.70
2018,06,06,04,25,11.70
2018,06,06,04,26,11.70
2018,06,06,04,27,11.60
2018,06,06,04,28,11.60
2018,06,06,04,29,11.50
2018,06,06,04,30,11.50
2018,06,06,04,31,11.40
2018,06,06,04,32,11.30
2018,06,06,04,33,11.30
2018,06,06,04,34,11.20
2018,06,06,04,35,11.10
2018,06,06,04,36,11.00
2018,06,06,04,37,11.00
2018,06,06,04,38,10.90
2018,06,06,04,39,10.80
2018,06,06,04,40,10.80
2018,06,06,04,41,10.80
2018,06,06,04,42,10.70
2018,06,06,04,43,10.70
2018,06,06,04,44,10.60
2018,06,06,04,45,10.60
2018,06,06,04,46,10.60
2018,06,06,04,47,10.50
2018,06,06,04,48,10.50
2018,06,06,04,49,10.50
2018,06,06,04,50,10.40
2018,06,06,04,51,10.30
2018,06,06,04,52,10.30
2018,06,06,04,53,10.30
2018,06,06,04,54,10.20
2018,06,06,04,55,10.20
2018,06,06,04,56,10.20
2018,06,06,04,57,10.20
2018,06,06,04,58,10.20
2018,06,06,04,59,10.20
2018,06,06,05,00,10.20
2018,06,06,05,01,10.10
2018,06,06,05,02,10.10
2018,06,06,05,03,10.10
2018,06,06,05,04,10.00
2018,06,06,05,05,10.00
2018,06,06,05,06,10.00
2018,06,06,05,07,9.90
2018,06,06,05,08,9.90
2018,06,06,05,09,9.90
2018,06,06,05,10,9.90
2018,06,06,05,11,9.90
2018,06,06,05,12,9.90
2018,06,06,05,13,9.90
2018,06,06,05,14,9.90
2018,06,06,05,15,9.80
2018,06,06,05,16,9.80
2018,06,06,05,17,9.80
2018,06,06,05,18,9.80
2018,06,06,05,19,9.80
2018,06,06,05,20,9.80
2018,06,06,05,21,9.80
2018,06,06,05,22,9.80
2018,06,06,05,23,9.80
2018,06,06,05,24,9.70
2018,06,06,05,25,9.70
2018,06,06,05,26,9.70
2018,06,06,05,27,9.70
2018,06,06,05,28,9.70
2018,06,06,05,29,9.70
2018,06,06,05,30,9.70
2018,06,06,05,31,9.60
2018,06,06,05,32,9.60
2018,06,06,05,33,9.60
2018,06,06,05,34,9.60
2018,06,06,05,35,9.60
2018,06,06,05,36,9.60
2018,06,06,05,37,9.60
2018,06,06,05,38,9.60
2018,06,06,05,39,9.60
2018,06,06,05,40,9.60
2018,06,06,05,41,9.60
2018,06,06,05,42,9.60
2018,06,06,05,43,9.60
2018,06,06,05,44,9.50
2018,06,06,05,45,9.50
2018,06,06,05,46,9.50
2018,06,06,05,47,9.50
2018,06,06,05,48,9.40
2018,06,06,05,49,9.40
2018,06,06,05,50,9.40
2018,06,06,05,51,9.40
2018,06,06,05,52,9.30
2018,06,06,05,53,9.30
2018,06,06,05,54,9.30
2018,06,06,05,55,9.30
2018,06,06,05,56,9.30
2018,06,06,05,57,9.30
2018,06,06,05,58,9.30
2018,06,06,05,59,9.30
2018,06,06,06,00,9.30
2018,06,06,06,01,9.30
2018,06,06,06,02,9.30
2018,06,06,06,03,9.30
2018,06,06,06,04,9.30
2018,06,06,06,05,9.30
2018,06,06,06,06,9.30
2018,06,06,06,07,9.30
2018,06,06,06,08,9.30
2018,06,06,06,09,9.40
2018,06,06,06,10,9.50
2018,06,06,06,11,9.60
2018,06,06,06,12,9.70
2018,06,06,06,13,9.80
2018,06,06,06,14,9.80
2018,06,06,06,15,9.80
2018,06,06,06,16,9.80
2018,06,06,06,17,9.80
2018,06,06,06,18,9.80
2018,06,06,06,19,9.80
2018,06,06,06,20,9.80
2018,06,06,06,21,9.80
2018,06,06,06,22,9.80
2018,06,06,06,23,9.80
2018,06,06,06,24,9.80
2018,06,06,06,25,9.80
2018,06,06,06,26,9.80
2018,06,06,06,27,9.80
2018,06,06,06,28,9.80
2018,06,06,06,29,9.80
2018,06,06,06,30,9.80
2018,06,06,06,31,9.80
2018,06,06,06,32,9.80
2018,06,06,06,33,9.80
2018,06,06,06,34,9.80
2018,06,06,06,35,9.80
2018,06,06,06,36,9.80
2018,06,06,06,37,9.80
2018,06,06,06,38,9.90
2018,06,06,06,39,9.90
2018,06,06,06,40,10.00
2018,06,06,06,41,10.00
2018,06,06,06,42,10.10
2018,06,06,06,43,10.10
2018,06,06,06,44,10.10
2018,06,06,06,45,10.10
2018,06,06,06,46,10.20
2018,06,06,06,47,10.20
2018,06,06,06,48,10.30
2018,06,06,06,49,10.30
2018,06,06,06,50,10.40
2018,06,06,06,51,10.40
2018,06,06,06,52,10.40
2018,06,06,06,53,10.40
2018,06,06,06,54,10.50
2018,06,06,06,55,10.50
2018,06,06,06,56,10.50
2018,06,06,06,57,10.60
2018,06,06,06,58,10.60
2018,06,06,06,59,10.60
2018,06,06,07,00,10.60
2018,06,06,07,01,10.70
2018,06,06,07,02,10.70
2018,06,06,07,03,10.70
2018,06,06,07,04,10.80
2018,06,06,07,05,10.80
2018,06,06,07,06,10.80
2018,06,06,07,07,10.90
2018,06,06,07,08,10.90
2018,06,06,07,09,11.00
2018,06,06,07,10,11.00
2018,06,06,07,11,11.10
2018,06,06,07,12,11.10
2018,06,06,07,13,11.20
2018,06,06,07,14,11.20
2018,06,06,07,15,11.20
2018,06,06,07,16,11.30
2018,06,06,07,17,11.30
2018,06,06,07,18,11.40
2018,06,06,07,19,11.40
2018,06,06,07,20,11.50
2018,06,06,07,21,11.50
2018,06,06,07,22,11.60
2018,06,06,07,23,11.60
2018,06,06,07,24,11.60
2018,06,06,07,25,11.70
2018,06,06,07,26,11.70
2018,06,06,07,27,11.80
2018,06,06,07,28,11.80
2018,06,06,07,29,11.80
2018,06,06,07,30,11.90
2018,06,06,07,31,11.90
2018,06,06,07,32,11.90
2018,06,06,07,33,12.00
2018,06,06,07,34,12.00
2018,06,06,07,35,12.10
2018,06,06,07,36,12.10
2018,06,06,07,37,12.10
2018,06,06,07,38,12.20
2018,06,06,07,39,12.20
2018,06,06,07,40,12.20
2018,06,06,07,41,12.30
2018,06,06,07,42,12.30
2018,06,06,07,43,12.30
2018,06,06,07,44,12.40
2018,06,06,07,45,12.40
2018,06,06,07,46,12.50
2018,06,06,07,47,12.50
2018,06,06,07,48,12.60
2018,06,06,07,49,12.60
2018,06,06,07,50,12.60
2018,06,06,07,51,12.60
2018,06,06,07,52,12.70
2018,06,06,07,53,12.70
2018,06,06,07,54,12.70
2018,06,06,07,55,12.80
2018,06,06,07,56,12.80
2018,06,06,07,57,12.80
2018,06,06,07,58,12.90
2018,06,06,07,59,12.90
2018,06,06,08,00,12.90
2018,06,06,08,01,12.90
2018,06,06,08,02,13.00
2018,06,06,08,03,13.00
2018,06,06,08,04,13.00
2018,06,06,08,05,13.00
2018,06,06,08,06,13.10
2018,06,06,08,07,13.10
2018,06,06,08,08,13.10
2018,06,06,08,09,13.10
2018,06,06,08,10,13.10
2018,06,06,08,11,13.10
2018,06,06,08,12,13.10
2018,06,06,08,13,13.10
2018,06,06,08,14,13.20
2018,06,06,08,15,13.20
2018,06,06,08,16,13.20
2018,06,06,08,17,13.20
2018,06,06,08,18,13.20
2018,06,06,08,19,13.20
2018,06,06,08,20,13.20
2018,06,06,08,21,13.20
2018,06,06,08,22,13.20
2018,06,06,08,23,13.20
2018,06,06,08,24,13.30
2018,06,06,08,25,13.30
2018,06,06,08,26,13.30
2018,06,06,08,27,13.30
2018,06,06,08,28,13.30
2018,06,06,08,29,13.30
2018,06,06,08,30,13.30
2018,06,06,08,31,13.30
2018,06,06,08,32,13.30
2018,06,06,08,33,13.30
2018,06,06,08,34,13.40
2018,06,06,08,35,13.40
2018,06,06,08,36,13.40
2018,06,06,08,37,13.40
2018,06,06,08,38,13.40
2018,06,06,08,39,13.50
2018,06,06,08,40,13.50
2018,06,06,08,41,13.60
2018,06,06,08,42,13.60
2018,06,06,08,43,13.70
2018,06,06,08,44,13.70
2018,06,06,08,45,13.80
2018,06,06,08,46,13.90
2018,06,06,08,47,14.00
2018,06,06,08,48,14.00
2018,06,06,08,49,14.20
2018,06,06,08,50,14.30
2018,06,06,08,51,14.30
2018,06,06,08,52,14.40
2018,06,06,08,53,14.40
2018,06,06,08,54,14.40
2018,06,06,08,55,14.40
2018,06,06,08,56,14.50
2018,06,06,08,57,14.50
2018,06,06,08,58,14.50
2018,06,06,08,59,14.50
2018,06,06,09,00,14.60
2018,06,06,09,01,14.60
2018,06,06,09,02,14.60
2018,06,06,09,03,14.70
2018,06,06,09,04,14.70
2018,06,06,09,05,14.60
2018,06,06,09,06,14.60
2018,06,06,09,07,14.60
2018,06,06,09,08,14.70
2018,06,06,09,09,14.70
2018,06,06,09,10,14.70
2018,06,06,09,11,14.70
2018,06,06,09,12,14.70
2018,06,06,09,13,14.70
2018,06,06,09,14,14.70
2018,06,06,09,15,14.70
2018,06,06,09,16,14.70
2018,06,06,09,17,14.70
2018,06,06,09,18,14.70
2018,06,06,09,19,14.70
2018,06,06,09,20,14.70
2018,06,06,09,21,14.70
2018,06,06,09,22,14.70
2018,06,06,09,23,14.80
2018,06,06,09,24,14.80
2018,06,06,09,25,14.80
2018,06,06,09,26,14.80
2018,06,06,09,27,14.90
2018,06,06,09,28,14.90
2018,06,06,09,29,14.90
2018,06,06,09,30,14.90
2018,06,06,09,31,15.00
2018,06,06,09,32,15.00
2018,06,06,09,33,15.00
2018,06,06,09,34,15.10
2018,06,06,09,35,15.10
2018,06,06,09,36,15.20
2018,06,06,09,37,15.20
2018,06,06,09,38,15.20
2018,06,06,09,39,15.30
2018,06,06,09,40,15.40
2018,06,06,09,41,15.50
2018,06,06,09,42,15.60
2018,06,06,09,43,15.70
2018,06,06,09,44,15.70
2018,06,06,09,45,15.70
2018,06,06,09,46,15.70
2018,06,06,09,47,15.70
2018,06,06,09,48,15.70
2018,06,06,09,49,15.70
2018,06,06,09,50,15.70
2018,06,06,09,51,15.60
2018,06,06,09,52,15.60
2018,06,06,09,53,15.50
2018,06,06,09,54,15.50
2018,06,06,09,55,15.40
2018,06,06,09,56,15.40
2018,06,06,09,57,15.40
2018,06,06,09,58,15.40
2018,06,06,09,59,15.40
2018,06,06,10,00,15.40
2018,06,06,10,01,15.40
2018,06,06,10,02,15.40
2018,06,06,10,03,15.30
2018,06,06,10,04,15.30
2018,06,06,10,05,15.30
2018,06,06,10,06,15.20
2018,06,06,10,07,15.10
2018,06,06,10,08,15.10
2018,06,06,10,09,15.10
2018,06,06,10,10,15.10
2018,06,06,10,11,15.10
2018,06,06,10,12,15.10
2018,06,06,10,13,15.10
2018,06,06,10,14,15.10
2018,06,06,10,15,15.10
2018,06,06,10,16,15.10
2018,06,06,10,17,15.10
2018,06,06,10,18,15.20
2018,06,06,10,19,15.20
2018,06,06,10,20,15.20
2018,06,06,10,21,15.20
2018,06,06,10,22,15.20
2018,06,06,10,23,15.20
2018,06,06,10,24,15.20
2018,06,06,10,25,15.30
2018,06,06,10,26,15.30
2018,06,06,10,27,15.30
2018,06,06,10,28,15.20
2018,06,06,10,29,15.20
2018,06,06,10,30,15.10
2018,06,06,10,31,15.10
2018,06,06,10,32,15.10
2018,06,06,10,33,15.00
2018,06,06,10,34,15.00
2018,06,06,10,35,15.00
2018,06,06,10,36,14.90
2018,06,06,10,37,14.90
2018,06,06,10,38,14.90
2018,06,06,10,39,14.90
2018,06,06,10,40,14.90
2018,06,06,10,41,14.90
2018,06,06,10,42,14.90
2018,06,06,10,43,14.90
2018,06,06,10,44,14.90
2018,06,06,10,45,14.90
2018,06,06,10,46,14.90
2018,06,06,10,47,14.90
2018,06,06,10,48,14.90
2018,06,06,10,49,14.80
2018,06,06,10,50,14.80
2018,06,06,10,51,14.80
2018,06,06,10,52,14.70
2018,06,06,10,53,14.70
2018,06,06,10,54,14.70
2018,06,06,10,55,14.70
2018,06,06,10,56,14.80
2018,06,06,10,57,14.80
2018,06,06,10,58,14.80
2018,06,06,10,59,14.80
2018,06,06,11,00,14.90
2018,06,06,11,01,14.90
2018,06,06,11,02,14.90
2018,06,06,11,03,14.90
2018,06,06,11,04,14.90
2018,06,06,11,05,15.00
2018,06,06,11,06,15.00
2018,06,06,11,07,15.00
2018,06,06,11,08,14.90
2018,06,06,11,09,14.90
2018,06,06,11,10,14.90
2018,06,06,11,11,14.90
2018,06,06,11,12,14.90
2018,06,06,11,13,14.90
2018,06,06,11,14,15.00
2018,06,06,11,15,15.00
2018,06,06,11,16,15.00
2018,06,06,11,17,15.00
2018,06,06,11,18,15.00
2018,06,06,11,19,15.00
2018,06,06,11,20,15.00
2018,06,06,11,21,15.10
2018,06,06,11,22,15.10
2018,06,06,11,23,15.10
2018,06,06,11,24,15.10
2018,06,06,11,25,15.10
2018,06,06,11,26,15.10
2018,06,06,11,27,15.00
2018,06,06,11,28,15.00
2018,06,06,11,29,15.00
2018,06,06,11,30,14.90
2018,06,06,11,31,14.90
2018,06,06,11,32,14.90
2018,06,06,11,33,14.90
2018,06,06,11,34,14.90
2018,06,06,11,35,14.90
2018,06,06,11,36,14.80
2018,06,06,11,37,14.80
2018,06,06,11,38,14.80
2018,06,06,11,39,14.80
2018,06,06,11,40,14.80
2018,06,06,11,41,14.80
2018,06,06,11,42,14.90
2018,06,06,11,43,14.80
2018,06,06,11,44,14.80
2018,06,06,11,45,14.80
2018,06,06,11,46,14.80
2018,06,06,11,47,14.80
2018,06,06,11,48,14.80
2018,06,06,11,49,14.80
2018,06,06,11,50,14.80
2018,06,06,11,51,14.80
2018,06,06,11,52,14.80
2018,06,06,11,53,14.80
2018,06,06,11,54,14.80
2018,06,06,11,55,14.80
2018,06,06,11,56,14.90
2018,06,06,11,57,14.90
2018,06,06,11,58,14.90
2018,06,06,11,59,14.90
2018,06,06,12,00,14.90
2018,06,06,12,01,15.00
2018,06,06,12,02,15.00
2018,06,06,12,03,15.00
2018,06,06,12,04,15.00
2018,06,06,12,05,15.00
2018,06,06,12,06,14.90
2018,06,06,12,07,14.90
2018,06,06,12,08,14.90
2018,06,06,12,09,15.00
2018,06,06,12,10,15.00
2018,06,06,12,11,15.00
2018,06,06,12,12,15.00
2018,06,06,12,13,15.00
2018,06,06,12,14,15.00
2018,06,06,12,15,15.00
2018,06,06,12,16,15.00
2018,06,06,12,17,15.00
2018,06,06,12,18,15.00
2018,06,06,12,19,15.10
2018,06,06,12,20,15.10
2018,06,06,12,21,15.10
2018,06,06,12,22,15.10
2018,06,06,12,23,15.10
2018,06,06,12,24,15.20
2018,06,06,12,25,15.20
2018,06,06,12,26,15.20
2018,06,06,12,27,15.20
2018,06,06,12,28,15.20
2018,06,06,12,29,15.20
2018,06,06,12,30,15.20
2018,06,06,12,31,15.20
2018,06,06,12,32,15.20
2018,06,06,12,33,15.10
2018,06,06,12,34,15.10
2018,06,06,12,35,15.10
2018,06,06,12,36,15.10
2018,06,06,12,37,15.10
2018,06,06,12,38,15.10
2018,06,06,12,39,15.10
2018,06,06,12,40,15.10
2018,06,06,12,41,15.10
2018,06,06,12,42,15.10
2018,06,06,12,43,15.10
2018,06,06,12,44,15.10
2018,06,06,12,45,15.10
2018,06,06,12,46,15.20
2018,06,06,12,47,15.20
2018,06,06,12,48,15.20
2018,06,06,12,49,15.20
2018,06,06,12,50,15.20
2018,06,06,12,51,15.20
2018,06,06,12,52,15.20
2018,06,06,12,53,15.30
2018,06,06,12,54,15.30
2018,06,06,12,55,15.30
2018,06,06,12,56,15.30
2018,06,06,12,57,15.30
2018,06,06,12,58,15.30
2018,06,06,12,59,15.40
2018,06,06,13,00,15.40
2018,06,06,13,01,15.50
2018,06,06,13,02,15.50
2018,06,06,13,03,15.50
2018,06,06,13,04,15.60
2018,06,06,13,05,15.60
2018,06,06,13,06,15.60
2018,06,06,13,07,15.60
2018,06,06,13,08,15.60
2018,06,06,13,09,15.60
2018,06,06,13,10,15.60
2018,06,06,13,11,15.60
2018,06,06,13,12,15.60
2018,06,06,13,13,15.60
2018,06,06,13,14,15.70
2018,06,06,13,15,15.70
2018,06,06,13,16,15.70
2018,06,06,13,17,15.70
2018,06,06,13,18,15.70
2018,06,06,13,19,15.70
2018,06,06,13,20,15.60
2018,06,06,13,21,15.60
2018,06,06,13,22,15.60
2018,06,06,13,23,15.60
2018,06,06,13,24,15.70
2018,06,06,13,25,15.70
2018,06,06,13,26,15.70
2018,06,06,13,27,15.70
2018,06,06,13,28,15.70
2018,06,06,13,29,15.70
2018,06,06,13,30,15.70
2018,06,06,13,31,15.70
2018,06,06,13,32,15.70
2018,06,06,13,33,15.70
2018,06,06,13,34,15.70
2018,06,06,13,35,15.70
2018,06,06,13,36,15.80
2018,06,06,13,37,15.80
2018,06,06,13,38,15.90
2018,06,06,13,39,15.90
2018,06,06,13,40,16.00
2018,06,06,13,41,16.00
2018,06,06,13,42,16.10
2018,06,06,13,43,16.10
2018,06,06,13,44,16.10
2018,06,06,13,45,16.10
2018,06,06,13,46,16.20
2018,06,06,13,47,16.20
2018,06,06,13,48,16.20
2018,06,06,13,49,16.20
2018,06,06,13,50,16.30
2018,06,06,13,51,16.30
2018,06,06,13,52,16.30
2018,06,06,13,53,16.30
2018,06,06,13,54,16.30
2018,06,06,13,55,16.30
2018,06,06,13,56,16.20
2018,06,06,13,57,16.20
2018,06,06,13,58,16.20
2018,06,06,13,59,16.20
2018,06,06,14,00,16.20
2018,06,06,14,01,16.20
2018,06,06,14,02,16.30
2018,06,06,14,03,16.30
2018,06,06,14,04,16.30
2018,06,06,14,05,16.30
2018,06,06,14,06,16.30
2018,06,06,14,07,16.40
2018,06,06,14,08,16.40
2018,06,06,14,09,16.50
2018,06,06,14,10,16.60
2018,06,06,14,11,16.70
2018,06,06,14,12,16.80
2018,06,06,14,13,16.90
2018,06,06,14,14,17.00
2018,06,06,14,15,17.10
2018,06,06,14,16,17.20
2018,06,06,14,17,17.30
2018,06,06,14,18,17.20
2018,06,06,14,19,17.20
2018,06,06,14,20,17.10
2018,06,06,14,21,17.20
2018,06,06,14,22,17.20
2018,06,06,14,23,17.30
2018,06,06,14,24,17.30
2018,06,06,14,25,17.40
2018,06,06,14,26,17.40
2018,06,06,14,27,17.50
2018,06,06,14,28,17.50
2018,06,06,14,29,17.50
2018,06,06,14,30,17.50
2018,06,06,14,31,17.50
2018,06,06,14,32,17.50
2018,06,06,14,33,17.50
2018,06,06,14,34,17.60
2018,06,06,14,35,17.60
2018,06,06,14,36,17.60
2018,06,06,14,37,17.70
2018,06,06,14,38,17.60
2018,06,06,14,39,17.60
2018,06,06,14,40,17.50
2018,06,06,14,41,17.40
2018,06,06,14,42,17.30
2018,06,06,14,43,17.30
2018,06,06,14,44,17.40
2018,06,06,14,45,17.40
2018,06,06,14,46,17.40
2018,06,06,14,47,17.50
2018,06,06,14,48,17.50
2018,06,06,14,49,17.60
2018,06,06,14,50,17.60
2018,06,06,14,51,17.60
2018,06,06,14,52,17.70
2018,06,06,14,53,17.70
2018,06,06,14,54,17.80
2018,06,06,14,55,17.80
2018,06,06,14,56,17.90
2018,06,06,14,57,18.00
2018,06,06,14,58,18.00
2018,06,06,14,59,18.10
2018,06,06,15,00,18.20
2018,06,06,15,01,18.20
2018,06,06,15,02,18.20
2018,06,06,15,03,18.10
2018,06,06,15,04,18.10
2018,06,06,15,05,18.00
2018,06,06,15,06,18.00
2018,06,06,15,07,18.00
2018,06,06,15,08,18.00
2018,06,06,15,09,18.00
2018,06,06,15,10,17.90
2018,06,06,15,11,17.80
2018,06,06,15,12,17.80
2018,06,06,15,13,17.70
2018,06,06,15,14,17.70
2018,06,06,15,15,17.70
2018,06,06,15,16,17.70
2018,06,06,15,17,17.60
2018,06,06,15,18,17.70
2018,06,06,15,19,17.70
2018,06,06,15,20,17.70
2018,06,06,15,21,17.80
2018,06,06,15,22,17.90
2018,06,06,15,23,17.90
2018,06,06,15,24,18.00
2018,06,06,15,25,18.00
2018,06,06,15,26,18.10
2018,06,06,15,27,18.10
2018,06,06,15,28,18.20
2018,06,06,15,29,18.20
2018,06,06,15,30,18.20
2018,06,06,15,31,18.10
2018,06,06,15,32,18.10
2018,06,06,15,33,18.00
2018,06,06,15,34,18.00
2018,06,06,15,35,17.90
2018,06,06,15,36,17.90
2018,06,06,15,37,17.80
2018,06,06,15,38,17.80
2018,06,06,15,39,17.70
2018,06,06,15,40,17.70
2018,06,06,15,41,17.60
2018,06,06,15,42,17.60
2018,06,06,15,43,17.50
2018,06,06,15,44,17.50
2018,06,06,15,45,17.50
2018,06,06,15,46,17.40
2018,06,06,15,47,17.40
2018,06,06,15,48,17.40
2018,06,06,15,49,17.40
2018,06,06,15,50,17.40
2018,06,06,15,51,17.40
2018,06,06,15,52,17.40
2018,06,06,15,53,17.40
2018,06,06,15,54,17.40
2018,06,06,15,55,17.40
2018,06,06,15,56,17.40
2018,06,06,15,57,17.40
2018,06,06,15,58,17.40
2018,06,06,15,59,17.40
2018,06,06,16,00,17.50
2018,06,06,16,01,17.50
2018,06,06,16,02,17.50
2018,06,06,16,03,17.60
2018,06,06,16,04,17.60
2018,06,06,16,05,17.60
2018,06,06,16,06,17.60
2018,06,06,16,07,17.70
2018,06,06,16,08,17.70
2018,06,06,16,09,17.80
2018,06,06,16,10,17.80
2018,06,06,16,11,17.90
2018,06,06,16,12,17.90
2018,06,06,16,13,17.90
2018,06,06,16,14,18.00
2018,06,06,16,15,18.00
2018,06,06,16,16,18.00
2018,06,06,16,17,18.00
2018,06,06,16,18,18.00
2018,06,06,16,19,18.00
2018,06,06,16,20,18.00
2018,06,06,16,21,17.90
2018,06,06,16,22,17.90
2018,06,06,16,23,17.80
2018,06,06,16,24,17.80
2018,06,06,16,25,17.80
2018,06,06,16,26,17.80
2018,06,06,16,27,17.70
2018,06,06,16,28,17.70
2018,06,06,16,29,17.70
2018,06,06,16,30,17.70
2018,06,06,16,31,17.70
2018,06,06,16,32,17.70
2018,06,06,16,33,17.70
2018,06,06,16,34,17.70
2018,06,06,16,35,17.70
2018,06,06,16,36,17.70
2018,06,06,16,37,17.70
2018,06,06,16,38,17.60
2018,06,06,16,39,17.60
2018,06,06,16,40,17.50
2018,06,06,16,41,17.50
2018,06,06,16,42,17.40
2018,06,06,16,43,17.40
2018,06,06,16,44,17.40
2018,06,06,16,45,17.50
2018,06,06,16,46,17.50
2018,06,06,16,47,17.50
2018,06,06,16,48,17.50
2018,06,06,16,49,17.50
2018,06,06,16,50,17.50
2018,06,06,16,51,17.50
2018,06,06,16,52,17.50
2018,06,06,16,53,17.50
2018,06,06,16,54,17.50
2018,06,06,16,55,17.40
2018,06,06,16,56,17.40
2018,06,06,16,57,17.40
2018,06,06,16,58,17.40
2018,06,06,16,59,17.40
2018,06,06,17,00,17.40
2018,06,06,17,01,17.40
2018,06,06,17,02,17.40
2018,06,06,17,03,17.40
2018,06,06,17,04,17.50
2018,06,06,17,05,17.50
2018,06,06,17,06,17.50
2018,06,06,17,07,17.50
2018,06,06,17,08,17.50
2018,06,06,17,09,17.60
2018,06,06,17,10,17.60
2018,06,06,17,11,17.60
2018,06,06,17,12,17.60
2018,06,06,17,13,17.60
2018,06,06,17,14,17.60
2018,06,06,17,15,17.60
2018,06,06,17,16,17.60
2018,06,06,17,17,17.70
2018,06,06,17,18,17.70
2018,06,06,17,19,17.70
2018,06,06,17,20,17.80
2018,06,06,17,21,17.80
2018,06,06,17,22,17.90
2018,06,06,17,23,17.90